Theta_e
319 318 319 321 323 321 320 321 322 323 324 324 323 323 324 324 324 324 324 324 322 321 321 320 320 321 321 321 324 325 325 324 324 322 321 323 322 322 326 326 326 327 326 326 325 321 321 319 321 327 330 330 331 332 332 332 332 333 334 335 333 334 336
316 317 319 320 320 321 320 321 322 321 323 324 322 322 323 322 322 321 321 320 319 318 317 317 318 319 319 320 320 320 321 321 321 322 321 319 321 320 322 322 324 324 325 325 325 325 320 317 318 321 324 328 330 331 333 333 333 334 334 333 333 332 334
317 317 319 319 320 320 319 321 322 321 321 321 322 322 321 320 320 320 319 319 319 317 316 316 316 316 317 317 317 318 319 319 320 319 318 318 319 319 320 320 319 320 322 322 322 322 322 321 316 317 321 320 319 325 330 330 331 331 332 333 335 333 334
318 318 317 318 318 319 318 319 321 322 322 321 321 322 321 319 320 320 320 319 319 318 315 314 314 313 315 315 315 315 316 316 316 317 316 317 317 316 317 317 317 317 316 315 317 318 319 318 318 317 319 320 319 319 325 329 329 328 329 331 332 333 334
320 318 318 318 317 318 319 318 320 321 321 321 321 320 320 320 320 320 320 319 318 317 315 315 314 313 314 313 314 313 313 314 314 314 314 313 314 314 314 315 315 317 316 315 316 317 316 317 317 317 317 319 320 321 324 327 328 328 328 328 330 332 334
320 320 319 320 319 318 319 319 319 319 320 319 320 319 319 320 319 319 319 317 317 317 316 314 314 314 313 312 312 312 312 312 312 312 311 311 311 310 310 312 312 313 314 315 315 315 315 317 317 315 317 318 315 318 320 324 324 326 327 328 330 331 331
320 320 320 319 319 318 319 319 320 320 320 321 320 319 319 319 319 319 319 318 317 317 316 315 314 313 313 311 311 311 311 311 312 311 311 311 311 311 311 309 310 310 311 312 313 314 313 313 313 313 313 314 317 315 318 319 323 321 324 328 329 329 328
320 319 319 320 320 318 319 321 321 321 321 321 321 321 320 320 319 319 319 318 317 317 316 315 314 314 313 311 311 312 311 311 311 311 310 310 309 309 310 309 308 308 309 309 311 311 311 312 312 312 311 309 310 313 312 315 316 318 319 322 327 327 327
320 320 319 318 319 320 320 321 321 322 322 322 323 322 321 320 319 319 318 318 317 317 316 314 313 312 312 311 310 311 310 311 311 310 310 310 310 310 309 309 308 307 309 308 309 309 309 311 311 312 312 311 307 305 310 310 312 312 317 318 321 326 327
319 319 319 318 318 319 320 320 321 322 323 323 322 322 320 320 319 319 317 317 317 316 315 314 313 313 312 311 310 310 310 310 310 309 309 309 310 309 309 308 308 307 308 309 309 309 310 310 310 310 311 310 310 306 305 306 308 310 314 319 315 322 326
319 319 319 319 319 317 318 318 319 319 320 321 321 321 320 319 319 319 318 317 316 315 314 313 312 312 312 311 311 310 309 310 309 309 309 308 308 309 308 308 308 307 308 308 307 309 309 309 309 309 309 310 310 307 307 305 306 311 312 316 317 316 323
318 318 318 318 318 317 317 317 317 318 320 320 320 320 319 318 318 318 318 316 315 315 314 314 313 312 312 311 310 309 309 309 307 307 308 307 307 307 307 307 307 307 308 308 308 308 309 308 308 309 308 309 309 309 307 307 303 309 315 313 316 320 318
317 318 318 317 316 316 317 317 317 318 319 319 320 320 318 318 318 317 317 316 315 314 313 313 312 312 312 310 309 308 308 307 306 306 306 307 305 307 306 306 306 306 307 307 307 308 307 308 308 307 308 308 308 308 308 306 304 304 311 311 313 315 316
317 318 318 317 316 317 317 317 317 318 318 318 320 319 319 318 317 317 316 315 314 313 312 312 312 311 310 309 308 308 307 306 304 305 305 305 305 305 305 304 305 306 307 306 306 307 306 306 307 307 307 306 306 307 307 306 303 304 309 312 312 311 313
318 318 318 318 317 316 317 316 317 317 317 318 319 318 318 319 318 317 316 315 314 312 311 311 310 310 309 308 308 308 306 305 304 304 304 303 304 304 304 303 303 305 306 305 307 305 305 305 305 304 305 305 304 305 307 304 303 303 303 309 309 311 311
318 318 317 317 317 316 316 317 317 316 316 317 318 318 318 318 317 316 316 314 312 311 311 310 310 309 308 307 306 306 306 305 304 303 303 302 302 303 303 303 303 304 306 305 306 307 306 305 305 304 305 305 304 304 304 304 303 302 302 304 307 307 309
319 318 317 317 317 317 317 316 316 316 316 317 316 318 318 317 316 316 314 312 311 311 310 309 309 308 307 307 306 305 305 305 304 303 302 302 302 302 302 302 303 303 304 303 304 305 305 306 305 305 305 305 305 303 304 305 304 303 302 301 304 305 307
319 318 317 317 317 317 317 316 316 315 316 316 316 316 316 316 316 314 313 311 310 310 309 308 308 308 307 307 306 305 304 304 304 303 303 303 302 303 302 302 302 302 302 302 303 302 303 304 303 303 303 304 304 305 304 304 304 304 302 301 302 305 306
319 319 318 318 318 317 316 315 315 315 315 315 315 315 315 314 314 313 312 311 310 309 309 308 308 306 306 306 306 305 304 304 303 303 303 302 302 302 302 301 301 302 302 301 301 302 303 302 302 302 302 302 302 303 304 304 304 303 302 301 302 301 304
320 319 318 318 318 316 315 315 314 314 314 315 314 314 314 314 314 313 312 311 309 309 308 307 307 306 305 304 304 304 303 303 302 303 302 301 301 301 301 301 301 301 301 301 301 301 302 302 302 302 302 302 302 302 302 302 302 302 301 300 301 302 302
321 320 318 318 317 316 315 315 314 314 312 310 310 311 312 313 313 312 311 310 309 309 308 306 305 305 304 304 304 303 301 301 301 300 301 300 300 300 300 300 300 301 301 301 302 302 302 301 302 301 302 302 302 301 301 301 301 300 300 300 300 300 301
319 319 318 317 315 315 314 314 314 312 311 311 311 311 311 311 309 310 309 309 308 308 306 305 305 304 304 302 301 301 300 299 299 299 299 298 299 299 299 299 300 300 300 298 298 298 298 298 299 299 301 301 301 300 300 300 300 299 299 299 299 301 300
318 318 317 316 315 314 313 314 313 311 310 311 311 310 308 307 307 307 307 307 307 306 305 305 301 298 299 300 300 299 300 299 298 298 298 297 298 298 298 299 299 297 297 297 296 295 295 295 296 298 299 300 300 299 299 299 298 299 299 297 298 298 298
317 316 316 315 315 314 313 313 312 311 311 310 309 308 307 307 307 306 306 305 305 305 304 302 294 293 293 295 299 299 298 298 298 298 297 297 296 297 297 297 298 298 297 297 297 294 293 293 293 294 294 295 297 298 298 297 298 298 297 298 298 298 297
315 315 315 314 314 314 313 312 311 310 309 308 309 308 306 306 306 306 305 304 304 303 303 297 292 292 292 292 296 299 299 298 298 297 297 296 296 296 296 297 297 298 298 298 297 297 296 294 293 292 292 292 292 292 293 297 297 297 297 297 297 297 298
315 315 315 314 314 313 312 310 309 308 307 308 307 306 305 304 304 304 304 303 302 302 300 294 292 292 292 291 292 296 297 298 297 297 297 296 296 296 296 296 296 297 297 296 296 297 297 297 294 293 293 293 293 292 291 290 292 297 297 296 296 296 297
314 314 315 314 313 312 310 308 309 309 308 306 306 305 304 304 303 303 302 302 301 300 298 294 291 292 292 290 290 293 297 297 297 296 296 296 296 296 295 295 295 295 296 297 297 297 297 296 296 296 297 297 298 297 293 292 290 290 294 297 297 296 298
313 313 314 313 312 310 308 308 307 306 305 305 305 304 303 303 302 302 302 301 300 298 298 292 291 291 291 290 289 292 298 297 297 297 297 296 296 296 295 295 295 295 295 296 296 295 294 294 295 294 294 295 296 296 297 298 299 299 298 298 298 297 298
311 312 312 311 309 308 307 306 305 304 304 303 303 302 302 301 300 300 300 299 298 297 297 290 290 290 290 290 290 296 297 297 296 296 296 296 296 295 295 295 295 295 295 295 294 291 291 294 293 292 292 293 293 294 296 295 294 295 297 299 299 299 299
310 311 311 309 307 306 305 305 305 303 302 301 300 300 299 300 300 300 299 298 298 297 296 292 290 290 290 289 292 297 297 296 296 295 296 296 295 295 295 295 295 294 294 295 293 289 289 290 292 292 291 292 292 292 293 295 293 292 292 292 292 292 292
309 310 310 308 307 306 306 305 304 303 301 299 299 299 299 299 298 299 298 297 298 297 296 294 290 290 290 289 293 296 296 295 295 295 295 296 296 295 295 293 294 294 294 294 291 289 289 291 292 291 291 290 290 290 291 293 294 294 292 292 291 291 291
309 309 309 309 308 306 305 304 302 301 300 301 300 300 300 298 297 297 297 297 296 297 296 294 290 289 290 289 293 296 296 295 294 295 295 294 295 295 295 294 293 293 293 293 289 289 289 290 292 291 290 289 288 288 290 291 291 292 293 293 294 295 295
308 309 309 309 307 305 303 301 300 300 300 300 298 297 298 297 296 297 296 296 295 296 295 295 294 289 290 290 291 295 295 294 294 294 294 293 293 294 294 295 294 290 289 289 288 288 288 288 290 291 290 289 288 288 291 291 291 291 291 291 291 292 292
308 309 309 308 306 304 302 301 301 300 299 299 298 297 297 297 296 295 294 294 294 295 296 296 295 289 290 290 290 291 294 294 294 294 293 293 293 293 293 294 294 292 289 289 288 288 288 288 289 290 289 288 289 290 290 289 289 289 289 289 290 290 290
308 309 308 305 304 303 302 301 300 299 298 297 297 296 296 294 294 294 294 294 294 295 294 293 297 292 289 289 289 289 293 294 294 293 292 292 293 293 293 293 293 292 289 288 288 288 288 288 288 289 288 287 287 287 289 289 289 289 289 289 289 288 289
308 308 306 304 302 300 300 300 299 299 298 298 297 296 294 293 293 293 293 294 295 296 297 296 291 294 291 289 289 289 288 290 289 292 292 292 292 293 293 293 292 290 288 288 287 287 287 287 288 288 287 287 287 287 288 289 288 288 288 288 288 288 288
308 305 303 302 301 300 299 299 299 299 299 298 296 294 293 294 294 294 295 296 298 298 299 298 293 289 291 288 288 288 287 287 288 291 292 292 293 292 292 292 291 288 287 287 287 287 287 288 288 287 287 287 287 287 288 288 288 287 287 287 287 287 288
Wind_Speed
3 3 3 3 2 3 4 5 5 5 4 5 5 5 6 6 6 6 6 7 7 7 7 7 7 6 6 7 7 7 6 6 6 5 4 4 3 3 4 3 2 2 1 3 4 4 4 4 4 2 1 3 1 0 1 0 1 1 3 4 4 5 5
2 1 3 3 4 4 5 4 5 5 5 4 5 6 5 7 6 7 7 7 7 7 7 7 7 8 9 8 8 7 7 7 6 6 5 5 4 4 3 4 3 3 1 1 2 2 2 3 5 4 4 4 3 0 2 1 2 2 3 3 4 5 5
3 3 3 4 4 4 6 5 5 5 5 5 5 5 6 7 7 7 8 9 8 8 8 8 9 9 9 9 9 8 7 8 6 7 7 6 5 5 5 4 3 3 2 2 3 4 3 2 4 5 5 7 5 1 3 3 2 3 4 4 5 5 5
6 5 5 5 4 5 6 5 5 5 5 5 5 5 6 6 6 7 7 8 8 8 8 9 8 8 8 8 8 10 10 9 7 7 7 7 6 6 6 5 5 4 4 3 4 5 5 4 5 5 5 6 6 6 3 3 4 5 5 4 4 4 5
8 6 7 8 7 8 7 6 5 5 5 5 5 5 5 5 6 6 7 7 7 8 8 8 8 8 7 8 7 7 7 8 8 7 7 8 8 6 7 6 5 4 4 4 4 4 4 5 5 7 7 6 7 5 5 6 7 5 4 4 4 3 4
8 8 8 7 7 7 6 6 6 6 6 6 5 6 6 6 5 6 6 6 7 7 8 9 9 9 8 8 8 8 8 8 7 7 7 8 8 6 5 5 4 4 4 4 4 4 4 4 5 6 6 6 7 7 6 5 5 4 6 4 2 2 2
7 7 7 7 7 6 7 8 8 7 7 7 7 7 7 7 5 6 6 7 7 8 8 8 8 8 8 8 8 8 8 7 7 8 7 7 7 7 5 4 5 4 4 4 4 4 4 5 5 5 7 7 7 8 7 7 5 6 2 1 2 4 4
7 6 6 5 7 7 7 7 6 6 6 7 7 7 8 7 7 6 7 7 7 7 7 7 7 8 8 7 7 7 6 6 7 6 6 6 6 6 6 5 3 4 3 3 3 4 4 4 5 5 6 8 7 6 7 7 7 8 8 6 4 4 5
5 5 4 4 4 5 7 7 7 7 6 6 6 7 7 7 7 7 7 7 7 7 7 7 7 7 8 7 6 6 6 4 6 6 5 5 5 5 4 4 3 3 3 3 3 3 3 3 4 4 5 6 7 9 7 8 7 8 6 6 4 3 1
6 7 6 6 6 5 5 5 6 6 5 5 6 7 8 7 7 8 7 7 7 7 7 7 7 7 7 6 6 6 6 5 5 5 4 4 4 3 3 3 2 2 2 2 2 2 2 2 2 3 4 5 5 7 8 9 8 7 5 3 4 1 3
6 6 5 6 5 6 5 5 4 4 6 5 5 5 7 8 7 8 8 8 7 7 7 6 6 6 7 6 6 5 5 4 4 4 4 4 3 2 3 2 2 2 2 1 2 1 1 2 1 2 3 3 4 6 7 9 11 7 8 7 7 7 4
8 7 6 5 5 6 7 7 7 6 5 5 5 6 6 7 7 7 7 8 7 7 6 6 6 5 5 6 5 5 4 3 4 4 3 3 2 2 3 2 2 2 2 1 1 0 1 1 1 2 2 3 4 5 7 8 12 7 3 7 6 6 8
9 9 8 8 7 9 9 8 8 8 8 7 7 8 8 8 8 8 7 8 8 7 7 6 5 5 5 5 5 4 4 3 4 3 3 2 2 2 1 2 1 2 1 2 1 1 1 0 1 2 2 3 4 5 6 8 10 13 7 9 9 9 10
11 9 9 10 9 9 8 8 8 8 8 8 8 9 9 10 10 9 9 9 9 8 8 7 6 5 5 5 5 4 3 3 3 3 3 3 2 2 2 2 1 1 1 2 1 1 1 1 1 2 2 3 4 5 5 7 10 13 8 5 7 8 9
9 9 10 9 10 9 9 8 8 8 9 9 9 10 11 9 9 10 10 10 9 8 8 8 7 6 6 7 6 4 3 3 3 3 3 4 4 2 3 3 3 2 2 3 3 3 2 2 2 2 2 2 4 5 5 7 9 10 13 6 7 7 8
10 10 10 9 10 10 9 9 9 10 9 9 9 9 10 10 10 11 10 10 10 9 9 9 7 7 7 7 6 5 4 3 3 3 3 4 4 4 4 4 4 4 3 4 4 4 3 3 3 3 3 3 4 5 6 7 8 10 13 11 8 9 8
10 10 10 10 10 10 9 8 9 10 9 8 9 8 9 10 10 11 11 11 10 10 10 9 8 7 7 7 6 6 5 3 2 1 2 3 4 4 5 5 5 5 5 5 5 5 4 4 4 4 4 4 4 5 6 7 8 9 11 13 10 10 9
10 11 11 9 10 9 9 8 8 10 9 9 9 8 8 9 10 11 10 12 11 10 10 9 8 7 6 6 6 5 4 3 1 1 1 2 2 4 4 5 6 6 6 6 6 6 5 6 6 6 5 5 5 5 5 6 8 8 10 12 12 10 10
11 11 10 9 9 8 8 8 9 9 10 12 10 9 10 9 10 11 11 11 11 10 9 8 8 7 7 6 5 4 3 2 1 1 2 3 4 4 5 6 6 6 6 7 7 6 7 8 7 7 8 7 7 6 6 7 7 8 10 11 12 11 8
9 9 9 9 7 8 9 9 9 9 7 3 5 7 8 10 9 10 10 10 10 10 9 8 8 7 6 6 5 4 2 1 1 1 2 4 4 5 6 6 6 7 7 7 8 8 8 8 7 8 8 8 8 8 8 8 8 9 9 10 11 10 10
9 8 7 7 8 8 8 9 10 8 6 9 8 9 10 11 8 8 9 9 9 8 9 8 8 7 6 5 4 3 2 1 2 2 3 4 4 5 6 6 7 7 7 8 8 8 8 8 8 9 9 9 9 9 9 8 8 8 9 9 10 10 9
9 8 7 7 8 9 10 10 8 8 12 12 10 9 6 6 6 7 8 9 9 8 8 7 6 6 6 5 3 3 2 2 2 2 3 4 4 5 5 6 6 6 7 9 11 11 11 11 10 10 10 9 10 10 11 10 10 10 9 9 9 9 9
8 9 8 9 9 10 9 10 10 11 10 9 8 8 9 8 9 9 9 9 9 8 7 5 6 8 5 4 4 3 2 1 1 1 2 3 4 5 5 6 6 8 9 10 11 12 12 13 13 12 11 11 11 11 11 12 11 10 10 11 10 9 10
7 9 9 9 9 10 10 9 9 9 9 9 11 11 10 11 9 9 9 9 9 7 6 6 9 9 8 5 4 3 2 1 0 1 2 4 5 6 6 7 7 8 9 9 9 9 10 12 13 14 15 15 14 13 12 13 13 12 12 11 10 10 10
8 9 9 9 10 10 8 8 9 9 9 11 9 8 9 9 8 8 8 8 8 7 6 9 10 9 8 7 3 2 2 0 1 1 2 4 5 6 7 7 7 6 7 8 10 11 11 11 11 12 14 14 15 16 16 14 13 12 12 12 13 12 11
7 8 9 9 8 8 8 9 9 10 11 9 9 10 10 10 9 9 9 10 8 8 8 11 10 10 9 8 6 3 2 1 1 2 3 4 5 6 7 7 7 6 6 9 9 9 10 10 10 11 12 13 15 17 17 18 18 16 14 15 14 14 12
8 7 8 8 8 8 8 9 9 10 9 10 11 10 11 12 11 10 9 9 8 7 8 11 11 10 9 8 7 5 2 2 2 2 3 4 4 6 7 7 8 8 8 9 9 9 9 10 11 11 11 10 11 11 13 16 19 20 19 16 16 16 15
9 8 7 7 7 7 8 7 9 8 8 11 11 11 11 11 9 8 8 7 7 6 6 11 10 10 9 8 8 5 2 2 2 3 3 4 5 6 7 7 8 9 9 9 8 9 11 11 11 11 13 13 13 13 13 13 13 12 12 13 16 17 16
8 9 8 7 7 8 8 10 10 8 7 6 6 8 7 9 10 9 8 8 8 8 7 12 10 10 9 8 8 4 3 3 3 3 4 4 5 6 6 7 9 10 10 10 11 9 9 10 12 13 13 14 14 13 12 12 13 11 14 14 15 15 14
8 9 8 8 8 9 9 9 7 8 9 8 10 10 10 9 9 9 9 8 7 6 6 9 10 10 9 8 6 3 3 3 4 4 5 5 6 6 6 7 9 10 11 11 11 9 9 9 13 15 15 15 15 14 14 12 12 13 13 15 18 19 20
9 10 10 9 9 8 8 7 8 8 11 11 10 9 9 8 7 8 8 7 7 7 6 7 9 8 8 9 6 3 3 4 5 6 6 6 6 7 8 11 12 11 11 12 12 10 9 10 15 16 16 16 16 15 14 12 12 11 13 14 15 17 18
9 10 11 10 8 9 9 8 7 7 7 5 5 5 5 7 7 6 6 6 6 6 5 7 10 9 9 8 6 4 4 5 6 6 6 7 7 7 8 9 11 12 13 14 14 13 13 13 15 15 16 16 17 17 14 14 13 14 13 13 13 13 13
9 11 12 9 7 7 6 7 8 8 8 9 10 9 6 6 7 5 4 4 5 5 4 4 7 9 9 8 8 5 4 5 7 7 7 8 9 9 9 10 9 10 12 13 13 13 13 12 14 16 16 16 17 17 14 14 14 14 16 15 15 14 15
10 11 12 8 7 8 7 8 8 7 7 7 9 7 7 6 5 5 4 3 3 4 3 4 5 7 6 6 5 4 5 6 7 7 8 9 9 10 10 10 9 12 10 8 10 12 13 14 15 16 16 17 17 17 16 16 17 18 17 17 16 15 14
9 10 8 6 8 8 8 7 7 9 10 10 9 9 8 8 6 5 2 2 1 1 1 2 3 5 3 3 4 4 5 7 6 8 9 9 10 10 11 11 14 14 10 10 11 13 16 18 19 17 18 20 20 19 18 18 17 16 15 15 14 14 14
10 6 7 9 11 10 9 10 8 6 8 8 8 7 8 6 5 4 2 2 3 4 4 3 2 4 4 4 6 6 7 7 7 7 8 10 10 11 11 14 14 11 11 14 18 20 21 22 20 19 21 19 19 19 19 16 16 15 14 13 14 15 15
8 6 8 8 8 10 9 10 8 8 8 7 6 7 5 5 4 4 4 4 4 4 3 2 3 4 5 6 6 7 8 8 8 7 9 10 10 11 14 14 13 16 19 21 22 22 21 20 19 22 21 22 21 20 17 15 15 14 14 14 14 15 15
Wind_Direction
174 160 162 158 128 133 127 118 115 106 96 98 102 96 99 97 92 88 88 88 84 81 80 78 77 73 76 69 60 63 63 60 61 68 67 45 36 59 18 27 53 25 292 261 260 275 296 289 271 278 148 87 1 193 249 211 169 223 238 241 248 242 237
147 128 146 150 157 151 138 129 122 115 105 93 94 100 101 102 96 95 90 86 84 82 83 82 77 74 70 68 64 61 61 61 63 69 70 58 52 40 16 27 15 10 354 50 10 347 289 282 275 280 287 321 311 205 124 23 303 274 265 256 254 258 245
158 135 156 158 162 166 152 144 136 132 126 117 103 102 102 101 100 98 95 92 87 83 80 78 77 73 69 68 64 64 63 68 59 54 57 59 56 50 39 28 11 353 333 1 11 343 318 285 287 296 298 302 312 319 309 304 308 309 282 259 248 245 242
162 156 157 162 167 171 163 158 152 139 139 129 122 113 108 108 102 99 99 98 97 94 90 83 75 74 70 69 67 64 58 57 57 58 59 51 53 52 44 40 39 30 17 355 7 343 328 302 293 283 290 287 293 302 280 300 311 294 274 252 246 242 241
170 173 176 171 176 176 168 162 151 146 143 137 135 130 126 122 116 109 109 108 105 103 97 94 91 85 80 75 69 65 65 62 59 58 53 49 43 51 46 42 40 31 31 18 3 346 344 317 308 293 288 301 293 284 305 313 306 289 279 276 260 246 240
183 185 183 174 173 174 170 163 164 162 155 156 155 145 141 137 125 122 118 112 110 108 107 104 100 96 91 87 82 79 72 68 65 64 64 59 52 43 39 38 32 28 28 14 1 350 338 324 312 300 294 319 297 297 295 297 292 294 290 282 258 275 296
188 191 190 180 173 175 173 172 176 171 169 169 162 159 153 147 135 126 120 112 112 113 110 107 104 98 95 93 93 87 85 82 78 74 73 71 66 61 49 44 35 34 23 12 356 345 343 330 325 314 305 291 288 287 286 279 280 296 248 272 307 307 301
193 191 197 189 172 171 178 178 182 175 176 170 170 156 154 151 142 137 133 129 127 124 120 115 109 101 97 95 94 93 87 85 82 79 75 69 62 55 50 42 47 45 30 21 10 0 354 338 323 321 315 307 300 290 290 285 282 265 275 281 284 294 292
207 200 194 184 187 181 174 180 182 183 184 170 161 152 156 153 148 142 139 133 134 131 126 122 115 106 105 102 100 100 98 98 94 87 84 82 73 70 65 48 44 46 29 24 6 15 360 337 311 310 309 299 299 298 300 293 285 279 276 276 284 271 281
218 214 204 191 189 188 185 185 187 188 173 172 163 160 157 157 152 148 141 137 138 133 129 125 120 117 114 107 106 107 101 99 96 92 87 86 86 80 71 64 52 61 54 31 24 9 6 348 314 294 297 300 303 293 295 295 290 295 282 305 315 300 336
224 233 225 204 185 182 191 186 185 178 187 185 172 162 157 156 153 153 145 144 141 140 136 131 126 122 116 106 107 100 99 102 100 95 86 83 77 78 68 64 45 51 51 10 31 9 352 345 312 306 279 282 281 278 288 289 289 290 287 288 272 278 307
204 216 219 211 190 195 194 190 182 189 176 171 171 164 162 161 161 157 150 145 145 142 138 131 129 121 113 110 107 100 98 90 84 86 79 68 61 48 48 42 35 42 28 22 345 32 339 301 309 281 285 266 268 272 277 278 283 276 283 295 297 306 305
202 199 203 199 200 201 199 190 183 181 183 175 181 174 171 168 165 161 157 149 146 145 142 136 131 123 114 107 106 97 95 88 84 76 75 69 58 37 24 13 11 3 11 326 352 346 299 279 293 285 269 276 266 266 272 273 268 275 279 288 295 296 298
211 206 199 196 202 202 197 190 191 185 172 183 174 175 176 173 170 167 160 157 154 152 148 146 142 136 123 116 106 103 99 73 57 61 48 62 62 33 14 341 311 295 293 288 312 290 283 302 270 262 270 269 271 266 271 273 277 284 287 277 291 297 305
207 206 206 202 204 203 195 193 189 179 186 185 178 180 179 171 170 168 164 160 158 156 156 152 151 147 139 132 127 123 106 76 46 44 29 23 22 20 350 341 335 328 305 289 286 289 302 294 275 265 255 273 279 275 269 277 278 284 291 297 294 302 304
210 209 209 209 208 206 200 194 183 186 192 183 184 184 177 171 171 170 165 162 161 161 161 157 156 152 143 139 134 128 118 95 60 33 18 10 357 353 341 338 331 329 312 301 295 288 289 281 288 279 277 271 272 273 272 268 275 280 288 295 305 301 302
214 212 213 214 213 209 200 195 190 194 194 180 181 184 176 172 169 169 165 164 164 162 162 157 158 154 145 138 130 122 120 113 99 65 13 352 344 337 335 327 329 322 316 306 304 303 292 289 284 286 280 272 261 262 268 269 266 275 283 289 294 297 303
223 217 217 216 213 209 204 197 191 197 189 186 186 173 175 173 170 170 167 167 165 163 162 159 154 147 136 126 118 117 114 107 92 17 339 325 311 316 315 310 311 313 310 304 301 295 298 296 295 290 286 283 273 265 265 266 271 273 279 283 289 291 294
233 231 227 224 217 213 207 203 198 200 193 189 178 176 174 176 176 172 169 165 163 161 159 157 149 137 129 123 118 113 111 105 68 334 319 314 316 311 304 303 300 299 299 296 296 294 291 289 289 284 283 283 283 280 270 269 265 269 273 279 284 289 284
235 230 226 223 211 206 206 204 201 204 195 167 139 179 181 176 176 170 164 159 158 155 150 141 131 126 123 118 113 109 103 85 351 329 321 322 315 309 302 299 295 292 289 290 289 288 288 287 281 280 278 278 275 275 273 269 268 265 266 274 279 279 284
250 241 228 216 210 204 201 199 202 185 138 142 183 202 186 178 165 158 154 156 149 143 137 133 128 126 121 118 115 108 90 41 359 342 337 326 320 311 307 301 297 295 290 288 289 291 290 285 285 282 280 280 279 278 275 271 266 262 262 263 267 279 281
253 249 234 222 209 205 204 203 187 168 186 188 187 173 141 111 137 151 153 146 143 141 137 133 136 136 131 126 119 107 82 51 8 350 336 330 322 316 311 309 300 297 300 295 290 280 278 281 284 280 275 275 276 277 276 277 275 272 268 264 263 263 269
257 247 234 220 214 209 203 198 191 190 193 185 151 127 137 151 169 160 155 149 140 134 130 127 121 115 104 120 121 104 101 87 46 351 329 325 323 321 316 309 301 293 280 272 268 265 261 258 256 264 274 277 275 273 274 274 272 271 273 271 265 266 266
265 250 238 227 219 214 207 198 192 185 172 158 158 162 160 160 158 158 152 146 140 132 129 124 134 130 121 112 114 113 108 114 10 313 319 327 325 326 321 316 308 300 292 286 279 268 261 254 251 252 255 258 263 269 271 267 268 269 268 266 262 259 260
273 261 235 228 222 216 199 186 185 177 164 165 165 150 146 148 143 139 138 138 136 140 134 130 146 143 143 146 138 130 144 154 281 307 326 326 328 326 322 317 309 304 296 298 299 294 281 267 255 249 248 249 249 247 246 256 266 266 262 265 265 259 260
265 256 242 226 219 206 193 184 178 169 170 159 141 155 156 144 144 139 141 146 149 149 143 150 157 154 152 151 152 201 164 189 268 306 320 319 321 321 320 317 312 304 300 292 289 291 295 294 287 276 265 255 248 242 243 243 243 251 264 266 264 264 259
275 259 251 223 211 202 187 183 175 170 160 160 165 157 149 149 146 147 150 155 154 154 149 162 162 159 152 159 156 197 184 205 255 282 298 309 307 312 314 313 311 307 305 304 300 297 300 302 301 300 293 289 285 271 248 231 231 237 244 256 260 262 263
283 275 254 222 204 190 180 171 166 164 165 169 164 155 150 141 140 142 147 145 148 153 155 162 165 161 161 168 161 202 196 207 240 262 270 284 287 293 301 301 302 301 302 302 301 305 303 301 303 300 296 291 288 283 280 279 270 258 247 242 253 257 262
281 269 251 212 193 183 175 171 171 164 157 150 135 130 129 137 147 154 154 150 152 164 166 171 169 169 168 171 162 206 199 228 249 265 279 283 287 291 293 297 301 300 298 295 292 285 282 294 297 298 294 291 288 284 279 278 280 276 268 268 264 262 261
274 261 237 200 190 182 176 176 163 159 155 156 152 154 152 152 152 152 156 161 164 165 164 181 178 177 176 162 177 218 219 248 259 268 274 283 287 283 279 286 295 296 293 287 287 281 278 276 294 294 293 291 288 286 283 281 273 269 261 255 256 260 266
269 254 233 204 193 186 175 165 166 171 166 162 164 159 145 141 143 147 151 163 171 168 175 172 183 187 181 175 201 232 258 267 273 279 282 276 277 280 274 254 262 282 285 284 283 278 274 274 291 292 291 291 287 285 284 285 284 278 272 260 251 248 251
264 250 232 212 194 177 173 167 153 149 156 126 78 76 112 129 131 143 162 165 165 164 171 182 188 191 190 184 191 240 263 275 278 283 292 294 290 288 287 276 255 259 275 283 284 281 277 278 287 288 289 288 285 283 282 285 284 285 284 282 276 269 256
256 246 231 208 185 174 135 128 151 157 154 150 145 151 149 131 139 155 153 160 179 194 178 181 182 194 200 199 202 245 272 281 287 294 298 301 300 296 292 290 282 255 244 254 265 269 270 265 277 285 285 282 282 280 284 283 282 283 282 282 280 278 275
249 239 227 195 169 161 155 155 148 148 142 128 125 126 128 133 137 149 167 180 192 202 203 198 172 184 211 222 221 220 274 281 288 296 301 301 298 299 299 298 299 299 304 296 285 279 275 273 274 281 280 277 274 281 288 283 282 280 277 276 274 273 271
247 235 210 150 161 160 158 146 147 144 141 134 127 130 121 142 152 147 125 158 180 242 199 220 254 188 214 274 285 262 278 282 294 300 299 295 297 297 299 302 302 310 311 295 290 287 282 279 275 276 275 273 275 277 275 275 277 276 274 273 270 268 266
240 209 181 181 169 160 154 146 129 108 114 118 121 117 146 150 139 126 129 171 204 221 226 217 219 291 291 277 278 276 262 271 287 281 289 294 297 296 297 300 298 303 311 303 291 283 278 275 274 273 271 270 269 268 269 271 269 268 265 263 262 263 261
224 160 149 143 135 130 133 130 116 122 117 101 116 131 105 107 137 163 185 194 197 206 189 236 169 205 286 297 291 279 278 272 271 282 295 293 292 297 299 296 301 310 296 285 278 274 274 272 276 277 274 271 269 269 272 271 267 262 258 257 256 255 254